| time (UTC) | temp F | wind direction | speed MPH | gust MPH | rain 1hr in | rain 24hr in | rain mn in | humidity % | barometer mb |
| 20260503220131 | 60 | 238 | 3.0 | 13.0 | 0.00 | 0.00 | 0.00 | 30 | 1010.2 |
| 20260503214131 | 60 | 254 | 0.0 | 14.0 | 0.00 | 0.00 | 0.00 | 30 | 1010.1 |
| 20260503212131 | 60 | 253 | 5.0 | 12.0 | 0.00 | 0.00 | 0.00 | 31 | 1010.2 |
| 20260503211131 | 61 | 223 | 4.0 | 15.0 | 0.00 | 0.00 | 0.00 | 30 | 1010.1 |
| 20260503210131 | 60 | 256 | 9.0 | 17.0 | 0.00 | 0.00 | 0.00 | 31 | 1010.2 |
| 20260503205131 | 60 | 235 | 3.0 | 9.0 | 0.00 | 0.00 | 0.00 | 32 | 1010.3 |
| 20260503202131 | 60 | 242 | 0.0 | 13.0 | 0.00 | 0.00 | 0.00 | 31 | 1010.5 |
| 20260503201132 | 59 | 246 | 0.0 | 13.0 | 0.00 | 0.00 | 0.00 | 33 | 1010.4 |
| 20260503200130 | 58 | 232 | 5.0 | 13.0 | 0.00 | 0.00 | 0.00 | 33 | 1010.4 |
| 20260503195131 | 59 | 263 | 3.0 | 16.0 | 0.00 | 0.00 | 0.00 | 33 | 1010.7 |
| 20260503194130 | 59 | 269 | 0.0 | 16.0 | 0.00 | 0.00 | 0.00 | 32 | 1010.7 |
| 20260503193130 | 59 | 285 | 7.0 | 10.0 | 0.00 | 0.00 | 0.00 | 34 | 1010.8 |
| 20260503192132 | 60 | 277 | 1.0 | 10.0 | 0.00 | 0.00 | 0.00 | 32 | 1011.1 |
| 20260503190131 | 58 | 236 | 3.0 | 13.0 | 0.00 | 0.00 | 0.00 | 35 | 1011.1 |
| 20260503185130 | 57 | 265 | 7.0 | 16.0 | 0.00 | 0.00 | 0.00 | 33 | 1011.0 |
| 20260503184131 | 58 | 284 | 6.0 | 20.0 | 0.00 | 0.00 | 0.00 | 31 | 1011.4 |
| 20260503183130 | 58 | 222 | 11.0 | 19.0 | 0.00 | 0.00 | 0.00 | 33 | 1011.5 |
| 20260503182131 | 59 | 257 | 5.0 | 19.0 | 0.00 | 0.00 | 0.00 | 36 | 1011.6 |
| 20260503181131 | 57 | 325 | 5.0 | 18.0 | 0.00 | 0.00 | 0.00 | 35 | 1011.4 |
| 20260503180130 | 57 | 281 | 10.0 | 22.0 | 0.00 | 0.00 | 0.00 | 34 | 1011.4 |
| 20260503175131 | 56 | 323 | 0.0 | 17.0 | 0.00 | 0.00 | 0.00 | 36 | 1011.4 |
| 20260503174131 | 56 | 247 | 4.0 | 14.0 | 0.00 | 0.00 | 0.00 | 35 | 1011.6 |
| 20260503173130 | 56 | 273 | 6.0 | 22.0 | 0.00 | 0.00 | 0.00 | 34 | 1011.7 |
| 20260503171130 | 55 | 296 | 0.0 | 13.0 | 0.00 | 0.00 | 0.00 | 37 | 1011.7 |
| 20260503170130 | 54 | 264 | 2.0 | 13.0 | 0.00 | 0.00 | 0.00 | 38 | 1011.7 |
| 20260503020117 | 50 | 266 | 0.0 | 0.0 | 0.00 | 0.00 | 0.00 | 49 | 1010.5 |
| 20260503015117 | 51 | 271 | 0.0 | 1.0 | 0.00 | 0.00 | 0.00 | 48 | 1010.4 |
| 20260503013117 | 51 | 278 | 0.0 | 6.0 | 0.00 | 0.00 | 0.00 | 47 | 1010.3 |
| 20260503012117 | 52 | 262 | 0.0 | 1.0 | 0.00 | 0.00 | 0.00 | 47 | 1010.3 |
| 20260503011118 | 52 | 277 | 0.0 | 6.0 | 0.00 | 0.00 | 0.00 | 46 | 1010.2 |
| 20260503010117 | 52 | 265 | 0.0 | 0.0 | 0.00 | 0.00 | 0.00 | 46 | 1010.2 |
| 20260503003117 | 53 | 231 | 0.0 | 7.0 | 0.00 | 0.00 | 0.00 | 47 | 1009.9 |
| 20260503002117 | 53 | 257 | 0.0 | 6.0 | 0.00 | 0.00 | 0.00 | 46 | 1009.8 |
| 20260503001117 | 53 | 273 | 0.0 | 1.0 | 0.00 | 0.00 | 0.00 | 45 | 1009.8 |
| 20260503000117 | 53 | 262 | 0.0 | 0.0 | 0.00 | 0.00 | 0.00 | 45 | 1009.7 |
| 20260502234117 | 54 | 266 | 0.0 | 2.0 | 0.00 | 0.00 | 0.00 | 44 | 1009.5 |
| 20260502233118 | 54 | 266 | 0.0 | 1.0 | 0.00 | 0.00 | 0.00 | 44 | 1009.4 |
| 20260502232118 | 55 | 266 | 0.0 | 1.0 | 0.00 | 0.00 | 0.00 | 41 | 1009.4 |
| 20260502230117 | 56 | 283 | 0.0 | 7.0 | 0.00 | 0.00 | 0.00 | 39 | 1009.5 |
| 20260502224117 | 56 | 256 | 0.0 | 0.0 | 0.00 | 0.00 | 0.00 | 38 | 1009.5 |
| 20260502223118 | 57 | 254 | 0.0 | 4.0 | 0.00 | 0.00 | 0.00 | 38 | 1009.4 |
| 20260502222118 | 57 | 319 | 0.0 | 7.0 | 0.00 | 0.00 | 0.00 | 39 | 1009.3 |